Simultaneous Nadir Overpasses (SNOs) Predictions

Prediction of SNOs between AQUA and NPP Satellite Orbit:

Table of predicted SNOs for the next 14.0 days since TLE Epoch: 5/9/2020
Index Date (AQUA) Time (AQUA) Lat,Lon (AQUA) SZA (AQUA ) Date (NPP) Time (NPP) Lat,Lon (NPP) SZA (NPP ) Distance(km) Time Diff (sec)
1 05/11/2020 06:21:47 75.97, -36.50 79.43 05/11/2020 06:21:16 75.97, -36.43 79.44 1.98 31
2 05/11/2020 07:10:55 -76.90, 134.26 101.68 05/11/2020 07:11:41 -76.91, 134.36 101.75 2.94 46
3 05/13/2020 21:54:45 -56.21,-112.38 81.04 05/13/2020 21:53:33 -56.43,-113.89 80.65 96.15 72
4 05/13/2020 22:38:09 76.23, 80.23 78.48 05/13/2020 22:38:05 76.24, 80.27 78.46 1.46 4
5 05/13/2020 23:27:17 -77.16,-108.88 102.65 05/13/2020 23:28:30 -77.17,-108.80 102.73 2.09 73
6 05/16/2020 14:05:27 -75.45, 26.13 101.23 05/16/2020 14:04:33 -75.45, 26.14 101.19 0.20 54
7 05/16/2020 14:54:29 76.59,-162.71 77.45 05/16/2020 14:54:52 76.59,-162.66 77.42 1.39 23
8 05/19/2020 06:21:46 -75.82, 143.07 102.22 05/19/2020 06:21:19 -75.82, 143.07 102.19 0.21 27
9 05/19/2020 07:10:49 76.88, -45.78 76.53 05/19/2020 07:11:39 76.89, -45.71 76.47 1.77 50
10 05/21/2020 21:51:08 68.21, 77.17 85.43 05/21/2020 21:49:55 68.32, 76.32 85.63 37.15 73
11 05/21/2020 22:38:06 -76.17, -99.95 103.15 05/21/2020 22:38:06 -76.17, -99.95 103.15 0.11 0




NCC Satellite Simultaneous Nadir Overpasses (SNOs) Prediction Service
